Location: ?????????
(55.6553°N, 38.9075°E)
Time: 14:47:10
(UTC+00:00)

NOSS 3-1 (A) - Pass Details

Date: 18 October 2019
Orbit: 771 x 1442 km, 63.4° (Epoch: 12 November)

Event Time Altitude Azimuth Distance (km) Brightness Sun altitude
Exits shadow 01:11:34 41° 296° (WNW) 1,410 4.0 -24.2°
Maximum altitude 01:13:23 52° 342° (NNW) 1,257 4.0 -24.0°
Drops below altitude 10° 01:20:27 10° 58° (ENE) 3,078 7.1 -23.0°
Sets 01:23:31 0° 64° (ENE) 4,148 8.2 -22.6°
